{"data":{"norad_id":65751,"epoch":"2026-05-24T22:58:03.415872Z","epoch_age_seconds":92822,"freshness":"FRESH","line1":"1 65751U 25216T   26144.95698398  .00017213  00000+0  59171-3 0  9993","line2":"2 65751  53.1597 338.4088 0001005  84.3591 275.7524 15.30211865 38225","mean_motion":15.30211865,"eccentricity":0.0001005,"inclination_deg":53.1597,"raan_deg":338.4088,"arg_perigee_deg":84.3591,"mean_anomaly_deg":275.7524,"bstar":0.00059171,"rev_number":3822,"period_min":94.104616029755,"perigee_km":474.4908845743,"apogee_km":475.86840121953,"semimajor_km":6853.3166428969,"source":"CELESTRAK","updated_at":"2026-05-25T13:38:20.932927Z"}}